Tracking 25710 objects as of 5-Jul-2022
HD Live streaming from Space Station
objects crossing your sky now

FENGYUN 1C DEB

Track FENGYUN 1C DEB now!
10-day predictions


NORAD ID: 31292
Int'l Code: 1999-025BPA
Perigee: 767.9 km
Apogee: 844.0 km
Inclination: 99.1 °
Period: 100.8 minutes
Semi major axis: 7176 km
RCS: 0.0053 m2 (small)
Launch date: May 10, 1999
Source: People's Republic of China (PRC)
Launch site: Taiyaun Space Center, China (TSC)

Note: This is SATELLITE DEBRIS
aabbcc
Your satellite tracking list
Your tracking list is empty




NASA's NSSDC Master Catalog

Two Line Element Set (TLE):
1 31292U 99025BPA 22185.58536368  .00004695  00000-0  18856-2 0  9998
2 31292  99.0819 306.3764 0053013 100.3331 260.3830 14.27896433785118
Source of the keplerian elements: AFSPC